Location: Bemmer
(51.5498°N, 5.6249°E)
Time: 13:45:32
(UTC+00:00)

SAR-Lupe-1 - Pass Details

Date: 03 March 2021
Orbit: 482 x 483 km, 98.2° (Epoch: 30 March)

Event Time Altitude Azimuth Distance (km) Brightness Sun altitude
Rises 18:23:23 0° 18° (NNE) 2,562 7.6 -10.4°
Reaches altitude 10° 18:25:30 10° 23° (NNE) 1,676 6.6 -10.7°
Maximum altitude 18:29:02 54° 102° (ESE) 595 4.1 -11.3°
Drops below altitude 10° 18:32:32 10° 180° (S) 1,662 6.7 -11.8°
Sets 18:34:37 0° 185° (S) 2,536 7.7 -12.1°
